DW4153 Weather Reports


time (UTC)temp
C
wind
direction
speed
KPH
gust
KPH
rain 1hr
cm
rain 24hr
cm
rain mn
cm
humidity
%
barometer
mb
20260505095033 9 352 0.0 3.2 0.00 3.00 0.61 25 1010.5
20260505092033 9 51 0.0 3.2 0.10 3.00 0.61 17 1010.4
20260505082036 9 111 0.0 3.2 0.10 2.90 0.58 7 1010.3
20260505075034 9 54 1.6 6.4 0.30 2.90 0.58 5 1010.2
20260505072034 9 113 0.0 3.2 0.61 2.79 0.56 4 1010.1
20260505065032 9 352 0.0 3.2 0.61 2.59 0.51 4 1010.1
20260505055026 8 74 0.0 0.0 0.41 2.01 0.41 6 1010.2
20260505052042 8 283 0.0 0.0 0.71 1.80 0.36 10 1010.2
20260505035043 8 61 0.0 0.0 0.41 0.41 0.08 27 1010.3
20260505025024 8 82 0.0 0.0 0.00 0.00 0.00 38 1010.6
20260505015038 9 56 0.0 1.6 0.00 0.00 0.00 28 1010.5
20260505012039 9 124 0.0 1.6 0.00 0.00 0.00 27 1010.7
20260505005046 9 79 0.0 0.0 0.00 0.00 0.00 20 1011.0
20260505002043 8 75 0.0 0.0 0.00 0.00 0.00 14 1011.1
20260504235028 8 75 0.0 0.0 0.00 0.00 0.00 18 1011.2
20260504232038 8 75 0.0 0.0 0.00 0.00 0.00 21 1011.3
20260504225036 8 75 0.0 0.0 0.00 0.00 0.00 24 1011.5
20260504222040 8 75 0.0 0.0 0.00 0.00 0.00 29 1011.7
20260504215039 9 75 0.0 0.0 0.00 0.00 0.00 33 1011.7
20260504212038 10 75 0.0 0.0 0.00 0.00 0.00 34 1011.7
20260504205035 10 74 0.0 0.0 0.00 0.00 0.00 42 1011.7
20260504202033 11 74 0.0 0.0 0.00 0.00 0.00 57 1011.8
20260504195027 12 74 0.0 0.0 0.00 0.00 0.00 63 1011.5
20260504192044 13 74 0.0 1.6 0.00 0.00 0.00 67 1011.5
20260504185042 14 105 0.0 0.0 0.00 0.00 0.00 71 1011.4
20260504182042 15 281 0.0 0.0 0.00 0.00 0.00 70 1011.2
20260504175038 16 281 0.0 0.0 0.00 0.00 0.00 69 1011.0
20260504172039 17 291 0.0 1.6 0.00 0.00 0.00 63 1011.1